• în România
  • Lista ţărilor
  • Pe 7 zile
  • Temperatura apei
  • Hartă satelitară
  • Meteo pe hartă
  • Widget-uri
  • user-avatar
    Intrare

    Meteo pe oră la Myzovka

    Astăzi, 19 Iulie, Joi

    Timp Temperatura Precipitaţii Vânt Presiune Umiditate
    00:00 +18°C° 0 mm 3 m/s 731 mmHg 97%
    01:00 +19°C° 0 mm 3 m/s 731 mmHg 97%
    02:00 +19°C° 0 mm 2 m/s 731 mmHg 97%
    03:00 +19°C° 0,1 mm 3 m/s 731 mmHg 97%
    04:00 +19°C° 0,1 mm 3 m/s 731 mmHg 96%
    05:00 +19°C° 0,1 mm 3 m/s 731 mmHg 96%
    06:00 +19°C° 0,3 mm 4 m/s 731 mmHg 95%
    07:00 +20°C° 0,3 mm 4 m/s 731 mmHg 94%
    08:00 +20°C° 0 mm 4 m/s 731 mmHg 93%
    09:00 +20°C° 0,3 mm 4 m/s 731 mmHg 92%
    10:00 +21°C° 0,3 mm 5 m/s 731 mmHg 91%
    11:00 +21°C° 0,3 mm 5 m/s 731 mmHg 89%
    12:00 +21°C° 0,1 mm 5 m/s 731 mmHg 88%
    13:00 +21°C° 0,1 mm 5 m/s 731 mmHg 87%
    14:00 +22°C° 0,1 mm 5 m/s 731 mmHg 86%
    15:00 +22°C° 0,1 mm 4 m/s 731 mmHg 86%
    16:00 +22°C° 0,1 mm 4 m/s 731 mmHg 86%
    17:00 +22°C° 0,1 mm 3 m/s 731 mmHg 85%
    18:00 +22°C° 0,1 mm 3 m/s 731 mmHg 89%
    19:00 +21°C° 0,1 mm 2 m/s 731 mmHg 92%
    20:00 +20°C° 0,1 mm 2 m/s 731 mmHg 95%
    21:00 +19°C° 0 mm 2 m/s 731 mmHg 96%
    22:00 +19°C° 0 mm 2 m/s 731 mmHg 97%
    23:00 +19°C° 0 mm 1 m/s 731 mmHg 97%

    Mâine, 20 Iulie, Vineri

    Timp Temperatura Precipitaţii Vânt Presiune Umiditate
    00:00 +19°C° 0 mm 1 m/s 731 mmHg 98%
    01:00 +19°C° 0 mm 1 m/s 731 mmHg 98%
    02:00 +19°C° 0 mm 1 m/s 731 mmHg 98%
    03:00 +20°C° 0 mm 1 m/s 731 mmHg 98%
    04:00 +20°C° 0 mm 1 m/s 731 mmHg 98%
    05:00 +20°C° 0 mm 1 m/s 731 mmHg 97%
    06:00 +21°C° 0 mm 1 m/s 732 mmHg 94%
    07:00 +21°C° 0 mm 2 m/s 732 mmHg 91%
    08:00 +23°C° 0 mm 2 m/s 732 mmHg 88%
    09:00 +24°C° 0,1 mm 2 m/s 732 mmHg 84%
    10:00 +25°C° 0,1 mm 2 m/s 732 mmHg 79%
    11:00 +26°C° 0,1 mm 2 m/s 732 mmHg 75%
    12:00 +26°C° 0,2 mm 2 m/s 732 mmHg 73%
    13:00 +27°C° 0,2 mm 2 m/s 732 mmHg 72%
    14:00 +28°C° 0,2 mm 2 m/s 733 mmHg 70%
    15:00 +27°C° 0,3 mm 2 m/s 733 mmHg 74%
    16:00 +27°C° 0,3 mm 2 m/s 732 mmHg 77%
    17:00 +27°C° 0,3 mm 2 m/s 732 mmHg 80%
    18:00 +25°C° 0,3 mm 2 m/s 733 mmHg 84%
    19:00 +24°C° 0,3 mm 2 m/s 733 mmHg 87%
    20:00 +23°C° 0,3 mm 2 m/s 733 mmHg 91%
    21:00 +21°C° 0,1 mm 2 m/s 733 mmHg 92%
    22:00 +21°C° 0,1 mm 2 m/s 733 mmHg 92%
    23:00 +20°C° 0,1 mm 2 m/s 733 mmHg 93%

    Poimâine, 21 Iulie, Sâmbătă

    Timp Temperatura Precipitaţii Vânt Presiune Umiditate
    00:00 +21°C° 0 mm 1 m/s 733 mmHg 93%
    01:00 +21°C° 0 mm 1 m/s 733 mmHg 94%
    02:00 +20°C° 0 mm 1 m/s 734 mmHg 94%
    03:00 +19°C° 0,1 mm 2 m/s 734 mmHg 94%
    04:00 +20°C° 0,1 mm 2 m/s 734 mmHg 94%
    05:00 +20°C° 0,1 mm 2 m/s 734 mmHg 94%
    06:00 +21°C° 0,1 mm 2 m/s 734 mmHg 90%
    07:00 +24°C° 0,1 mm 2 m/s 734 mmHg 87%
    08:00 +25°C° 0,1 mm 2 m/s 734 mmHg 83%
    09:00 +26°C° 0,9 mm 2 m/s 734 mmHg 79%
    10:00 +27°C° 0,9 mm 2 m/s 734 mmHg 75%
    11:00 +28°C° 0,9 mm 2 m/s 734 mmHg 71%
    12:00 +28°C° 0,7 mm 2 m/s 734 mmHg 69%
    13:00 +28°C° 0,7 mm 2 m/s 734 mmHg 67%
    14:00 +29°C° 0,7 mm 1 m/s 734 mmHg 65%
    15:00 +28°C° 0,5 mm 2 m/s 734 mmHg 68%
    16:00 +28°C° 0,5 mm 2 m/s 734 mmHg 72%
    17:00 +28°C° 0,5 mm 2 m/s 734 mmHg 75%
    18:00 +26°C° 0,3 mm 2 m/s 734 mmHg 80%
    19:00 +25°C° 0,3 mm 2 m/s 734 mmHg 85%
    20:00 +23°C° 0,3 mm 2 m/s 734 mmHg 90%
    21:00 +23°C° 0,1 mm 2 m/s 734 mmHg 91%
    22:00 +21°C° 0,1 mm 2 m/s 734 mmHg 92%
    23:00 +21°C° 0,1 mm 2 m/s 734 mmHg 94%

    22 Iulie, Duminică

    Timp Temperatura Precipitaţii Vânt Presiune Umiditate
    00:00 +20°C° 0,6 mm 2 m/s 734 mmHg 94%
    01:00 +20°C° 0,6 mm 2 m/s 734 mmHg 95%
    02:00 +20°C° 0,6 mm 2 m/s 734 mmHg 95%
    03:00 +20°C° 0,3 mm 2 m/s 734 mmHg 95%
    04:00 +20°C° 0,3 mm 2 m/s 734 mmHg 95%
    05:00 +20°C° 0,3 mm 2 m/s 734 mmHg 95%
    06:00 +21°C° 0,1 mm 2 m/s 734 mmHg 92%
    07:00 +24°C° 0,1 mm 2 m/s 734 mmHg 88%
    08:00 +25°C° 0,1 mm 3 m/s 734 mmHg 85%
    09:00 +26°C° 0,9 mm 3 m/s 734 mmHg 81%
    10:00 +27°C° 0,9 mm 3 m/s 734 mmHg 78%
    11:00 +28°C° 0,9 mm 3 m/s 734 mmHg 74%
    12:00 +28°C° 0,5 mm 2 m/s 734 mmHg 71%
    13:00 +29°C° 0,5 mm 2 m/s 733 mmHg 68%
    14:00 +29°C° 0,5 mm 2 m/s 733 mmHg 65%
    15:00 +29°C° 0,3 mm 2 m/s 733 mmHg 68%
    16:00 +29°C° 0,3 mm 2 m/s 733 mmHg 72%
    17:00 +29°C° 0,3 mm 2 m/s 733 mmHg 75%
    18:00 +27°C° 0,1 mm 2 m/s 733 mmHg 80%
    19:00 +25°C° 0,1 mm 2 m/s 733 mmHg 85%
    20:00 +24°C° 0,1 mm 2 m/s 733 mmHg 89%
    21:00 +23°C° 0,3 mm 2 m/s 733 mmHg 91%
    22:00 +23°C° 0,3 mm 2 m/s 733 mmHg 93%
    23:00 +21°C° 0,3 mm 2 m/s 733 mmHg 94%

    23 Iulie, Luni

    Timp Temperatura Precipitaţii Vânt Presiune Umiditate
    00:00 +21°C° 0,1 mm 2 m/s 733 mmHg 95%
    01:00 +21°C° 0,1 mm 2 m/s 733 mmHg 96%
    02:00 +20°C° 0,1 mm 2 m/s 733 mmHg 96%
    03:00 +20°C° 0 mm 2 m/s 733 mmHg 96%
    04:00 +21°C° 0 mm 2 m/s 733 mmHg 96%
    05:00 +21°C° 0 mm 2 m/s 734 mmHg 97%
    06:00 +23°C° 0 mm 2 m/s 734 mmHg 94%
    07:00 +24°C° 0 mm 3 m/s 734 mmHg 91%
    08:00 +25°C° 0 mm 3 m/s 734 mmHg 88%
    09:00 +25°C° 0,3 mm 3 m/s 734 mmHg 85%
    10:00 +26°C° 0,3 mm 3 m/s 734 mmHg 83%
    11:00 +26°C° 0,3 mm 4 m/s 734 mmHg 80%
    12:00 +26°C° 0,7 mm 3 m/s 734 mmHg 80%
    13:00 +26°C° 0,7 mm 3 m/s 734 mmHg 80%
    14:00 +26°C° 0,7 mm 3 m/s 734 mmHg 80%
    15:00 +26°C° 0,2 mm 2 m/s 734 mmHg 82%
    16:00 +25°C° 0,2 mm 2 m/s 734 mmHg 83%
    17:00 +25°C° 0,2 mm 2 m/s 734 mmHg 84%
    18:00 +24°C° 0 mm 2 m/s 735 mmHg 86%
    19:00 +23°C° 0 mm 2 m/s 735 mmHg 88%
    20:00 +21°C° 0 mm 2 m/s 735 mmHg 90%
    21:00 +21°C° 0 mm 2 m/s 735 mmHg 91%
    22:00 +20°C° 0 mm 2 m/s 735 mmHg 92%
    23:00 +20°C° 0 mm 2 m/s 735 mmHg 93%

    24 Iulie, Marţi

    Timp Temperatura Precipitaţii Vânt Presiune Umiditate
    00:00 +20°C° 0 mm 2 m/s 735 mmHg 93%
    01:00 +20°C° 0 mm 2 m/s 736 mmHg 94%
    02:00 +19°C° 0 mm 2 m/s 736 mmHg 94%
    03:00 +20°C° 0 mm 2 m/s 736 mmHg 95%
    04:00 +20°C° 0 mm 2 m/s 736 mmHg 95%
    05:00 +20°C° 0 mm 2 m/s 736 mmHg 95%
    06:00 +21°C° 0 mm 3 m/s 737 mmHg 91%
    07:00 +22°C° 0 mm 3 m/s 737 mmHg 87%
    08:00 +25°C° 0 mm 3 m/s 737 mmHg 82%
    09:00 +26°C° 0 mm 4 m/s 737 mmHg 78%
    10:00 +27°C° 0 mm 4 m/s 737 mmHg 74%
    11:00 +28°C° 0 mm 4 m/s 738 mmHg 70%
    12:00 +28°C° 0 mm 4 m/s 738 mmHg 68%
    13:00 +28°C° 0 mm 3 m/s 738 mmHg 66%
    14:00 +29°C° 0 mm 3 m/s 738 mmHg 65%
    15:00 +29°C° 0,1 mm 3 m/s 738 mmHg 67%
    16:00 +28°C° 0,1 mm 3 m/s 738 mmHg 70%
    17:00 +28°C° 0,1 mm 2 m/s 738 mmHg 72%
    18:00 +27°C° 0,2 mm 2 m/s 738 mmHg 77%
    19:00 +25°C° 0,2 mm 2 m/s 738 mmHg 82%
    20:00 +23°C° 0,2 mm 2 m/s 738 mmHg 87%
    21:00 +21°C° 0,1 mm 2 m/s 738 mmHg 89%
    22:00 +21°C° 0,1 mm 2 m/s 739 mmHg 91%
    23:00 +20°C° 0,1 mm 2 m/s 739 mmHg 93%
    Arată mai mult